Time,TemperatureF,DewpointF,PressureIn,WindDirection,WindDirectionDegrees,WindSpeedMPH,WindSpeedGustMPH,Humidity,HourlyPrecipIn,Conditions,Clouds,dailyrainin,SoftwareType,DateUTC
2014-11-27 00:04:00,32.2,27.0,29.29,North,0,0.0,0.0,81,0.00,,---,0.00,VWS V15.00,2014-11-27 05:04:00,
2014-11-27 00:09:00,32.2,27.0,29.29,North,0,0.0,0.0,81,0.00,,---,0.00,VWS V15.00,2014-11-27 05:09:00,
2014-11-27 00:14:00,32.0,26.8,29.29,North,0,0.0,0.0,81,0.00,,---,0.00,VWS V15.00,2014-11-27 05:14:00,
2014-11-27 00:19:00,32.0,26.8,29.29,North,0,0.0,0.0,81,0.00,,---,0.00,VWS V15.00,2014-11-27 05:19:00,
2014-11-27 00:25:00,32.0,27.1,29.29,North,0,0.0,0.0,82,0.00,,---,0.00,VWS V15.00,2014-11-27 05:25:00,
2014-11-27 00:30:00,32.0,27.1,29.29,North,0,0.0,0.0,82,0.00,,---,0.00,VWS V15.00,2014-11-27 05:30:00,
2014-11-27 00:35:00,31.8,27.0,29.29,North,0,0.0,0.0,82,0.00,,---,0.00,VWS V15.00,2014-11-27 05:35:00,
2014-11-27 00:40:00,31.8,27.0,29.29,North,0,0.0,0.0,82,0.00,,---,0.00,VWS V15.00,2014-11-27 05:40:00,
2014-11-27 00:45:00,31.8,27.0,29.26,North,0,0.0,0.0,82,0.00,,---,0.00,VWS V15.00,2014-11-27 05:45:00,
2014-11-27 00:50:00,31.6,27.1,29.26,North,0,0.0,0.0,83,0.00,,---,0.00,VWS V15.00,2014-11-27 05:50:00,
2014-11-27 00:55:00,31.6,27.1,29.26,North,0,0.0,0.0,83,0.00,,---,0.00,VWS V15.00,2014-11-27 05:55:00,
2014-11-27 01:00:00,31.6,27.1,29.29,North,0,0.0,0.0,83,0.00,,---,0.00,VWS V15.00,2014-11-27 06:00:00,
2014-11-27 01:05:00,31.6,26.8,29.29,North,0,0.0,0.0,82,0.00,,---,0.00,VWS V15.00,2014-11-27 06:05:00,
2014-11-27 01:10:00,31.6,27.1,29.29,North,0,0.0,0.0,83,0.00,,---,0.00,VWS V15.00,2014-11-27 06:10:00,
2014-11-27 01:16:00,31.6,27.1,29.29,North,0,0.0,0.0,83,0.00,,---,0.00,VWS V15.00,2014-11-27 06:16:00,
2014-11-27 01:21:00,31.6,26.8,29.29,North,0,0.0,0.0,82,0.00,,---,0.00,VWS V15.00,2014-11-27 06:21:00,
2014-11-27 01:26:00,31.6,26.8,29.29,North,0,0.0,0.0,82,0.00,,---,0.00,VWS V15.00,2014-11-27 06:26:00,
2014-11-27 01:31:00,31.8,26.7,29.29,North,0,0.0,0.0,81,0.00,,---,0.00,VWS V15.00,2014-11-27 06:31:00,
2014-11-27 01:36:00,32.0,26.5,29.29,North,0,0.0,0.0,80,0.00,,---,0.00,VWS V15.00,2014-11-27 06:36:00,
2014-11-27 01:41:00,32.0,26.2,29.29,North,0,0.0,0.0,79,0.00,,---,0.00,VWS V15.00,2014-11-27 06:41:00,
2014-11-27 01:46:00,32.0,26.2,29.29,North,0,0.0,0.0,79,0.00,,---,0.00,VWS V15.00,2014-11-27 06:46:00,
2014-11-27 01:51:00,32.0,26.5,29.29,North,0,0.0,0.0,80,0.00,,---,0.00,VWS V15.00,2014-11-27 06:51:00,
2014-11-27 01:56:00,32.0,26.2,29.29,North,0,0.0,0.0,79,0.00,,---,0.00,VWS V15.00,2014-11-27 06:56:00,
2014-11-27 02:01:00,32.0,25.9,29.29,North,0,0.0,0.0,78,0.00,,---,0.00,VWS V15.00,2014-11-27 07:01:00,
2014-11-27 02:06:00,32.0,25.9,29.29,North,0,0.0,0.0,78,0.00,,---,0.00,VWS V15.00,2014-11-27 07:06:00,
2014-11-27 02:11:00,32.0,25.9,29.29,North,0,0.0,0.0,78,0.00,,---,0.00,VWS V15.00,2014-11-27 07:11:00,
2014-11-27 02:16:00,32.2,25.8,29.29,North,0,0.0,0.0,77,0.00,,---,0.00,VWS V15.00,2014-11-27 07:16:00,
2014-11-27 02:21:00,32.2,25.5,29.29,North,0,0.0,0.0,76,0.00,,---,0.00,VWS V15.00,2014-11-27 07:21:00,
2014-11-27 02:26:00,32.2,25.5,29.29,North,0,0.0,0.0,76,0.00,,---,0.00,VWS V15.00,2014-11-27 07:26:00,
2014-11-27 02:31:00,32.2,25.5,29.29,North,0,0.0,0.0,76,0.00,,---,0.00,VWS V15.00,2014-11-27 07:31:00,
2014-11-27 02:36:00,32.0,25.3,29.29,North,0,0.0,0.0,76,0.00,,---,0.00,VWS V15.00,2014-11-27 07:36:00,
2014-11-27 02:41:00,32.2,25.5,29.29,North,0,0.0,0.0,76,0.00,,---,0.00,VWS V15.00,2014-11-27 07:41:00,
2014-11-27 02:46:00,32.2,25.2,29.29,North,0,0.0,0.0,75,0.00,,---,0.00,VWS V15.00,2014-11-27 07:46:00,
2014-11-27 02:51:00,32.0,25.3,29.29,North,0,0.0,0.0,76,0.00,,---,0.00,VWS V15.00,2014-11-27 07:51:00,
2014-11-27 02:56:00,32.0,25.3,29.29,North,0,0.0,0.0,76,0.00,,---,0.00,VWS V15.00,2014-11-27 07:56:00,
2014-11-27 03:01:00,32.0,25.0,29.29,North,0,0.0,0.0,75,0.00,,---,0.00,VWS V15.00,2014-11-27 08:01:00,
2014-11-27 03:06:00,32.0,25.0,29.29,North,0,0.0,0.0,75,0.00,,---,0.00,VWS V15.00,2014-11-27 08:06:00,
2014-11-27 03:11:00,32.0,25.0,29.29,North,0,0.0,0.0,75,0.00,,---,0.00,VWS V15.00,2014-11-27 08:11:00,
2014-11-27 03:16:00,32.0,25.0,29.29,North,0,0.0,0.0,75,0.00,,---,0.00,VWS V15.00,2014-11-27 08:16:00,
2014-11-27 03:21:00,32.0,25.0,29.29,North,0,0.0,0.0,75,0.00,,---,0.00,VWS V15.00,2014-11-27 08:21:00,
2014-11-27 03:26:00,31.8,24.8,29.29,North,0,0.0,0.0,75,0.00,,---,0.00,VWS V15.00,2014-11-27 08:26:00,
2014-11-27 03:31:00,31.8,24.8,29.29,North,0,0.0,0.0,75,0.00,,---,0.00,VWS V15.00,2014-11-27 08:31:00,
2014-11-27 03:36:00,31.8,24.8,29.29,North,0,0.0,0.0,75,0.00,,---,0.00,VWS V15.00,2014-11-27 08:36:00,
2014-11-27 03:41:00,31.6,25.0,29.29,North,0,0.0,0.0,76,0.00,,---,0.00,VWS V15.00,2014-11-27 08:41:00,
2014-11-27 03:46:00,31.6,25.0,29.29,North,0,0.0,0.0,76,0.00,,---,0.00,VWS V15.00,2014-11-27 08:46:00,
2014-11-27 03:51:00,31.5,24.5,29.29,North,0,0.0,0.0,75,0.00,,---,0.00,VWS V15.00,2014-11-27 08:51:00,
2014-11-27 03:56:00,31.3,24.6,29.29,North,0,0.0,0.0,76,0.00,,---,0.00,VWS V15.00,2014-11-27 08:56:00,
2014-11-27 04:01:00,31.1,24.4,29.29,North,0,0.0,0.0,76,0.00,,---,0.00,VWS V15.00,2014-11-27 09:01:00,
2014-11-27 04:06:00,31.1,24.4,29.29,North,0,0.0,0.0,76,0.00,,---,0.00,VWS V15.00,2014-11-27 09:06:00,
2014-11-27 04:12:00,31.1,24.4,29.29,North,0,0.0,0.0,76,0.00,,---,0.00,VWS V15.00,2014-11-27 09:12:00,
2014-11-27 04:17:00,31.1,24.1,29.29,North,0,0.0,0.0,75,0.00,,---,0.00,VWS V15.00,2014-11-27 09:17:00,
2014-11-27 04:22:00,31.1,24.1,29.29,North,0,0.0,0.0,75,0.00,,---,0.00,VWS V15.00,2014-11-27 09:22:00,
2014-11-27 04:27:00,31.1,24.1,29.29,North,0,0.0,0.0,75,0.00,,---,0.00,VWS V15.00,2014-11-27 09:27:00,
2014-11-27 04:32:00,31.1,23.8,29.29,North,0,0.0,0.0,74,0.00,,---,0.00,VWS V15.00,2014-11-27 09:32:00,
2014-11-27 04:37:00,31.1,23.5,29.29,North,0,0.0,0.0,73,0.00,,---,0.00,VWS V15.00,2014-11-27 09:37:00,
2014-11-27 04:42:00,31.1,23.5,29.29,North,0,0.0,0.0,73,0.00,,---,0.00,VWS V15.00,2014-11-27 09:42:00,
2014-11-27 04:47:00,31.1,23.5,29.29,North,0,0.0,0.0,73,0.00,,---,0.00,VWS V15.00,2014-11-27 09:47:00,
2014-11-27 04:52:00,30.9,23.3,29.29,North,0,0.0,0.0,73,0.00,,---,0.00,VWS V15.00,2014-11-27 09:52:00,
2014-11-27 04:57:00,30.9,23.0,29.29,North,0,0.0,0.0,72,0.00,,---,0.00,VWS V15.00,2014-11-27 09:57:00,
2014-11-27 05:02:00,31.1,22.5,29.29,North,0,0.0,0.0,70,0.00,,---,0.00,VWS V15.00,2014-11-27 10:02:00,
2014-11-27 05:07:00,31.1,22.5,29.29,North,0,0.0,0.0,70,0.00,,---,0.00,VWS V15.00,2014-11-27 10:07:00,
2014-11-27 05:12:00,31.1,22.1,29.29,North,0,0.0,0.0,69,0.00,,---,0.00,VWS V15.00,2014-11-27 10:12:00,
2014-11-27 05:17:00,31.1,21.1,29.32,North,0,0.0,0.0,66,0.00,,---,0.00,VWS V15.00,2014-11-27 10:17:00,
2014-11-27 05:22:00,31.1,20.7,29.32,North,0,0.0,0.0,65,0.00,,---,0.00,VWS V15.00,2014-11-27 10:22:00,
2014-11-27 05:27:00,31.1,20.7,29.32,North,0,0.0,0.0,65,0.00,,---,0.00,VWS V15.00,2014-11-27 10:27:00,
2014-11-27 05:32:00,31.1,21.1,29.32,North,0,0.0,0.0,66,0.00,,---,0.00,VWS V15.00,2014-11-27 10:32:00,
2014-11-27 05:37:00,31.1,20.7,29.32,North,0,0.0,0.0,65,0.00,,---,0.00,VWS V15.00,2014-11-27 10:37:00,
2014-11-27 05:42:00,31.1,20.7,29.32,North,0,0.0,0.0,65,0.00,,---,0.00,VWS V15.00,2014-11-27 10:42:00,
2014-11-27 05:47:00,30.9,20.2,29.32,North,0,0.0,0.0,64,0.00,,---,0.00,VWS V15.00,2014-11-27 10:47:00,
2014-11-27 05:52:00,30.9,20.2,29.32,North,0,0.0,0.0,64,0.00,,---,0.00,VWS V15.00,2014-11-27 10:52:00,
2014-11-27 05:57:00,30.9,19.8,29.32,North,0,0.0,0.0,63,0.00,,---,0.00,VWS V15.00,2014-11-27 10:57:00,
2014-11-27 06:02:00,30.9,19.5,29.32,North,0,0.0,0.0,62,0.00,,---,0.00,VWS V15.00,2014-11-27 11:02:00,
2014-11-27 06:07:00,30.9,19.8,29.32,North,0,0.0,0.0,63,0.00,,---,0.00,VWS V15.00,2014-11-27 11:07:00,
2014-11-27 06:13:00,30.7,19.3,29.32,North,0,0.0,0.0,62,0.00,,---,0.00,VWS V15.00,2014-11-27 11:13:00,
2014-11-27 06:18:00,30.7,18.9,29.35,North,0,0.0,0.0,61,0.00,,---,0.00,VWS V15.00,2014-11-27 11:18:00,
2014-11-27 06:23:00,30.7,18.9,29.35,North,0,0.0,0.0,61,0.00,,---,0.00,VWS V15.00,2014-11-27 11:23:00,
2014-11-27 06:28:00,30.6,18.3,29.35,North,0,0.0,0.0,60,0.00,,---,0.00,VWS V15.00,2014-11-27 11:28:00,
2014-11-27 06:33:00,30.7,18.1,29.32,North,0,0.0,0.0,59,0.00,,---,0.00,VWS V15.00,2014-11-27 11:33:00,
2014-11-27 06:38:00,30.6,17.1,29.32,North,0,0.0,0.0,57,0.00,,---,0.00,VWS V15.00,2014-11-27 11:38:00,
2014-11-27 06:43:00,30.6,17.1,29.32,North,0,0.0,0.0,57,0.00,,---,0.00,VWS V15.00,2014-11-27 11:43:00,
2014-11-27 06:48:00,30.4,17.0,29.35,North,0,0.0,0.0,57,0.00,,---,0.00,VWS V15.00,2014-11-27 11:48:00,
2014-11-27 06:53:00,30.2,16.8,29.35,North,0,0.0,0.0,57,0.00,,---,0.00,VWS V15.00,2014-11-27 11:53:00,
2014-11-27 06:58:00,30.2,16.8,29.35,North,0,0.0,0.0,57,0.00,,---,0.00,VWS V15.00,2014-11-27 11:58:00,
2014-11-27 07:03:00,30.0,17.0,29.35,North,0,0.0,0.0,58,0.00,,---,0.00,VWS V15.00,2014-11-27 12:03:00,
2014-11-27 07:08:00,30.0,16.6,29.35,North,0,0.0,0.0,57,0.00,,---,0.00,VWS V15.00,2014-11-27 12:08:00,
2014-11-27 07:13:00,30.0,17.0,29.35,North,0,0.0,0.0,58,0.00,,---,0.00,VWS V15.00,2014-11-27 12:13:00,
2014-11-27 07:18:00,30.0,17.0,29.35,North,0,0.0,0.0,58,0.00,,---,0.00,VWS V15.00,2014-11-27 12:18:00,
2014-11-27 07:24:00,30.0,16.6,29.35,North,0,0.0,0.0,57,0.00,,---,0.00,VWS V15.00,2014-11-27 12:24:00,
2014-11-27 07:29:00,30.0,17.0,29.35,North,0,0.0,0.0,58,0.00,,---,0.00,VWS V15.00,2014-11-27 12:29:00,
2014-11-27 07:34:00,30.2,17.2,29.35,North,0,0.0,0.0,58,0.00,,---,0.00,VWS V15.00,2014-11-27 12:34:00,
2014-11-27 07:39:00,30.2,16.4,29.35,North,0,0.0,0.0,56,0.00,,---,0.00,VWS V15.00,2014-11-27 12:39:00,
2014-11-27 07:44:00,30.6,17.1,29.35,North,0,0.0,0.0,57,0.00,,---,0.00,VWS V15.00,2014-11-27 12:44:00,
2014-11-27 07:49:00,30.7,16.9,29.35,North,0,0.0,0.0,56,0.00,,---,0.00,VWS V15.00,2014-11-27 12:49:00,
2014-11-27 07:54:00,30.9,17.5,29.35,North,0,0.0,0.0,57,0.00,,---,0.00,VWS V15.00,2014-11-27 12:54:00,
2014-11-27 07:59:00,31.1,17.2,29.35,North,0,0.0,0.0,56,0.00,,---,0.00,VWS V15.00,2014-11-27 12:59:00,
2014-11-27 08:04:00,31.1,16.8,29.38,North,0,0.0,0.0,55,0.00,,---,0.00,VWS V15.00,2014-11-27 13:04:00,
2014-11-27 08:09:00,31.3,17.4,29.38,North,0,0.0,0.0,56,0.00,,---,0.00,VWS V15.00,2014-11-27 13:09:00,
2014-11-27 08:14:00,31.3,16.6,29.38,North,0,0.0,0.0,54,0.00,,---,0.00,VWS V15.00,2014-11-27 13:14:00,
2014-11-27 08:20:00,31.5,16.8,29.38,North,0,0.0,0.0,54,0.00,,---,0.00,VWS V15.00,2014-11-27 13:20:00,
2014-11-27 08:25:00,31.5,16.8,29.38,North,0,0.0,0.0,54,0.00,,---,0.00,VWS V15.00,2014-11-27 13:25:00,
2014-11-27 08:30:00,31.5,16.3,29.38,North,0,0.0,0.0,53,0.00,,---,0.00,VWS V15.00,2014-11-27 13:30:00,
2014-11-27 08:35:00,31.6,16.9,29.38,North,0,0.0,0.0,54,0.00,,---,0.00,VWS V15.00,2014-11-27 13:35:00,
2014-11-27 08:40:00,31.8,16.6,29.38,North,0,0.0,0.0,53,0.00,,---,0.00,VWS V15.00,2014-11-27 13:40:00,
2014-11-27 08:45:00,31.8,16.6,29.38,North,0,0.0,0.0,53,0.00,,---,0.00,VWS V15.00,2014-11-27 13:45:00,
2014-11-27 08:50:00,32.0,17.2,29.38,North,0,0.0,0.0,54,0.00,,---,0.00,VWS V15.00,2014-11-27 13:50:00,
2014-11-27 08:55:00,32.0,16.8,29.38,North,0,0.0,0.0,53,0.00,,---,0.00,VWS V15.00,2014-11-27 13:55:00,
2014-11-27 09:00:00,31.8,16.2,29.38,North,0,0.0,0.0,52,0.00,,---,0.00,VWS V15.00,2014-11-27 14:00:00,
2014-11-27 09:05:00,32.0,16.4,29.38,North,0,0.0,0.0,52,0.00,,---,0.00,VWS V15.00,2014-11-27 14:05:00,
2014-11-27 09:10:00,31.8,16.2,29.38,North,0,0.0,0.0,52,0.00,,---,0.00,VWS V15.00,2014-11-27 14:10:00,
2014-11-27 09:16:00,31.6,16.0,29.38,North,0,0.0,0.0,52,0.00,,---,0.00,VWS V15.00,2014-11-27 14:16:00,
2014-11-27 09:21:00,31.3,15.7,29.38,North,0,0.0,0.0,52,0.00,,---,0.00,VWS V15.00,2014-11-27 14:21:00,
2014-11-27 09:26:00,31.3,15.3,29.38,North,0,0.0,0.0,51,0.00,,---,0.00,VWS V15.00,2014-11-27 14:26:00,
2014-11-27 09:31:00,31.5,15.9,29.41,North,0,0.0,0.0,52,0.00,,---,0.00,VWS V15.00,2014-11-27 14:31:00,
2014-11-27 09:36:00,31.5,15.9,29.41,North,0,0.0,0.0,52,0.00,,---,0.00,VWS V15.00,2014-11-27 14:36:00,
2014-11-27 09:41:00,31.6,15.6,29.41,North,0,0.0,0.0,51,0.00,,---,0.00,VWS V15.00,2014-11-27 14:41:00,
2014-11-27 09:46:00,31.6,15.1,29.38,North,0,0.0,0.0,50,0.00,,---,0.00,VWS V15.00,2014-11-27 14:46:00,
2014-11-27 09:51:00,31.8,15.8,29.38,North,0,0.0,0.0,51,0.00,,---,0.00,VWS V15.00,2014-11-27 14:51:00,
2014-11-27 09:56:00,31.8,15.3,29.38,North,0,0.0,0.0,50,0.00,,---,0.00,VWS V15.00,2014-11-27 14:56:00,
2014-11-27 10:01:00,32.0,15.9,29.41,North,0,0.0,0.0,51,0.00,,---,0.00,VWS V15.00,2014-11-27 15:01:00,
2014-11-27 10:06:00,32.0,15.0,29.41,North,0,0.0,0.0,49,0.00,,---,0.00,VWS V15.00,2014-11-27 15:06:00,
2014-11-27 10:11:00,32.0,15.5,29.41,North,0,0.0,0.0,50,0.00,,---,0.00,VWS V15.00,2014-11-27 15:11:00,
2014-11-27 10:16:00,32.2,15.6,29.41,North,0,0.0,0.0,50,0.00,,---,0.00,VWS V15.00,2014-11-27 15:16:00,
2014-11-27 10:21:00,32.2,15.6,29.41,North,0,0.0,0.0,50,0.00,,---,0.00,VWS V15.00,2014-11-27 15:21:00,
2014-11-27 10:26:00,32.4,15.4,29.41,North,0,0.0,0.0,49,0.00,,---,0.00,VWS V15.00,2014-11-27 15:26:00,
2014-11-27 10:31:00,32.5,15.5,29.41,North,0,0.0,0.0,49,0.00,,---,0.00,VWS V15.00,2014-11-27 15:31:00,
2014-11-27 10:36:00,32.7,16.1,29.41,North,0,0.0,0.0,50,0.00,,---,0.00,VWS V15.00,2014-11-27 15:36:00,
2014-11-27 10:41:00,32.9,16.3,29.41,North,0,0.0,0.0,50,0.00,,---,0.00,VWS V15.00,2014-11-27 15:41:00,
2014-11-27 10:46:00,33.1,16.0,29.41,North,0,0.0,0.0,49,0.00,,---,0.00,VWS V15.00,2014-11-27 15:46:00,
2014-11-27 10:51:00,33.3,17.1,29.41,North,0,0.0,0.0,51,0.00,,---,0.00,VWS V15.00,2014-11-27 15:51:00,
2014-11-27 10:56:00,33.4,16.8,29.41,North,0,0.0,0.0,50,0.00,,---,0.00,VWS V15.00,2014-11-27 15:56:00,
2014-11-27 11:02:00,33.6,17.0,29.41,North,0,0.0,0.0,50,0.00,,---,0.00,VWS V15.00,2014-11-27 16:02:00,
2014-11-27 11:07:00,33.8,17.1,29.41,North,0,0.0,0.0,50,0.00,,---,0.00,VWS V15.00,2014-11-27 16:07:00,
2014-11-27 11:12:00,34.0,17.3,29.41,North,0,0.0,0.0,50,0.00,,---,0.00,VWS V15.00,2014-11-27 16:12:00,
2014-11-27 11:17:00,34.0,17.3,29.41,North,0,0.0,0.0,50,0.00,,---,0.00,VWS V15.00,2014-11-27 16:17:00,
2014-11-27 11:22:00,34.0,17.3,29.41,North,0,0.0,0.0,50,0.00,,---,0.00,VWS V15.00,2014-11-27 16:22:00,
2014-11-27 11:27:00,34.2,17.5,29.41,North,0,0.0,0.0,50,0.00,,---,0.00,VWS V15.00,2014-11-27 16:27:00,
2014-11-27 11:32:00,34.3,17.2,29.41,North,0,0.0,0.0,49,0.00,,---,0.00,VWS V15.00,2014-11-27 16:32:00,
2014-11-27 11:37:00,34.3,15.7,29.41,North,0,0.0,0.0,46,0.00,,---,0.00,VWS V15.00,2014-11-27 16:37:00,
2014-11-27 11:43:00,34.3,16.7,29.41,North,0,0.0,0.0,48,0.00,,---,0.00,VWS V15.00,2014-11-27 16:43:00,
2014-11-27 11:48:00,34.5,17.3,29.41,North,0,0.0,0.0,49,0.00,,---,0.00,VWS V15.00,2014-11-27 16:48:00,
2014-11-27 11:53:00,35.1,17.8,29.41,North,0,0.0,0.0,49,0.00,,---,0.00,VWS V15.00,2014-11-27 16:53:00,
2014-11-27 11:58:00,35.1,17.4,29.41,North,0,0.0,0.0,48,0.00,,---,0.00,VWS V15.00,2014-11-27 16:58:00,
2014-11-27 12:03:00,35.2,17.5,29.41,North,0,0.0,0.0,48,0.00,,---,0.00,VWS V15.00,2014-11-27 17:03:00,
2014-11-27 12:08:00,35.6,17.9,29.41,North,0,0.0,0.0,48,0.00,,---,0.00,VWS V15.00,2014-11-27 17:08:00,
2014-11-27 12:14:00,35.6,17.9,29.41,North,0,0.0,0.0,48,0.00,,---,0.00,VWS V15.00,2014-11-27 17:14:00,
2014-11-27 12:20:00,35.8,18.0,29.41,North,0,0.0,0.0,48,0.00,,---,0.00,VWS V15.00,2014-11-27 17:20:00,
2014-11-27 12:25:00,35.6,17.4,29.41,North,0,0.0,0.0,47,0.00,,---,0.00,VWS V15.00,2014-11-27 17:25:00,
2014-11-27 12:30:00,35.6,16.9,29.41,North,0,0.0,0.0,46,0.00,,---,0.00,VWS V15.00,2014-11-27 17:30:00,
2014-11-27 12:35:00,35.8,17.5,29.41,North,0,0.0,0.0,47,0.00,,---,0.00,VWS V15.00,2014-11-27 17:35:00,
2014-11-27 12:40:00,35.8,18.0,29.41,North,0,0.0,0.0,48,0.00,,---,0.00,VWS V15.00,2014-11-27 17:40:00,
2014-11-27 12:46:00,36.1,18.8,29.41,North,0,0.0,0.0,49,0.00,,---,0.00,VWS V15.00,2014-11-27 17:46:00,
2014-11-27 12:51:00,36.5,19.2,29.41,North,0,0.0,0.0,49,0.00,,---,0.00,VWS V15.00,2014-11-27 17:51:00,
2014-11-27 12:56:00,36.7,18.9,29.41,North,0,0.0,0.0,48,0.00,,---,0.00,VWS V15.00,2014-11-27 17:56:00,
2014-11-27 13:02:00,36.5,18.2,29.41,North,0,0.0,0.0,47,0.00,,---,0.00,VWS V15.00,2014-11-27 18:02:00,
2014-11-27 13:07:00,36.3,18.0,29.41,North,0,0.0,0.0,47,0.00,,---,0.00,VWS V15.00,2014-11-27 18:07:00,
2014-11-27 13:13:00,35.8,17.5,29.41,North,0,0.0,0.0,47,0.00,,---,0.00,VWS V15.00,2014-11-27 18:13:00,
2014-11-27 13:18:00,35.4,17.2,29.41,North,0,0.0,0.0,47,0.00,,---,0.00,VWS V15.00,2014-11-27 18:18:00,
2014-11-27 13:24:00,34.9,16.7,29.41,North,0,0.0,0.0,47,0.00,,---,0.00,VWS V15.00,2014-11-27 18:24:00,
2014-11-27 13:29:00,34.9,17.2,29.41,North,0,0.0,0.0,48,0.00,,---,0.00,VWS V15.00,2014-11-27 18:29:00,
2014-11-27 13:34:00,34.7,16.5,29.41,North,0,0.0,0.0,47,0.00,,---,0.00,VWS V15.00,2014-11-27 18:34:00,
2014-11-27 13:39:00,34.5,16.4,29.41,North,0,0.0,0.0,47,0.00,,---,0.00,VWS V15.00,2014-11-27 18:39:00,
2014-11-27 13:44:00,34.3,15.7,29.41,North,0,0.0,0.0,46,0.00,,---,0.00,VWS V15.00,2014-11-27 18:44:00,
2014-11-27 13:49:00,34.0,15.4,29.41,North,0,0.0,0.0,46,0.00,,---,0.00,VWS V15.00,2014-11-27 18:49:00,
2014-11-27 13:54:00,34.2,15.6,29.41,North,0,0.0,0.0,46,0.00,,---,0.00,VWS V15.00,2014-11-27 18:54:00,
2014-11-27 14:00:00,34.0,15.4,29.41,North,0,0.0,0.0,46,0.00,,---,0.00,VWS V15.00,2014-11-27 19:00:00,
2014-11-27 14:06:00,33.8,15.7,29.41,North,0,0.0,0.0,47,0.00,,---,0.00,VWS V15.00,2014-11-27 19:06:00,
2014-11-27 14:12:00,33.6,15.6,29.41,North,0,0.0,0.0,47,0.00,,---,0.00,VWS V15.00,2014-11-27 19:12:00,
2014-11-27 14:17:00,33.4,15.9,29.41,North,0,0.0,0.0,48,0.00,,---,0.00,VWS V15.00,2014-11-27 19:17:00,
2014-11-27 14:23:00,33.4,16.4,29.41,North,0,0.0,0.0,49,0.00,,---,0.00,VWS V15.00,2014-11-27 19:23:00,
2014-11-27 14:28:00,33.3,16.2,29.41,North,0,0.0,0.0,49,0.05,,---,0.05,VWS V15.00,2014-11-27 19:28:00,
2014-11-27 14:33:00,33.1,16.0,29.44,North,0,0.0,0.0,49,0.05,,---,0.05,VWS V15.00,2014-11-27 19:33:00,
2014-11-27 14:38:00,33.1,16.0,29.44,North,0,0.0,0.0,49,0.05,,---,0.05,VWS V15.00,2014-11-27 19:38:00,
2014-11-27 14:43:00,33.1,16.5,29.44,North,0,0.0,0.0,50,0.05,,---,0.05,VWS V15.00,2014-11-27 19:43:00,
2014-11-27 14:48:00,32.7,16.1,29.44,North,0,0.0,0.0,50,0.05,,---,0.05,VWS V15.00,2014-11-27 19:48:00,
2014-11-27 14:53:00,32.2,15.6,29.44,North,0,0.0,0.0,50,0.05,,---,0.05,VWS V15.00,2014-11-27 19:53:00,
2014-11-27 14:59:00,31.8,15.3,29.44,North,0,0.0,0.0,50,0.05,,---,0.05,VWS V15.00,2014-11-27 19:59:00,
2014-11-27 15:04:00,31.5,15.0,29.44,North,0,0.0,0.0,50,0.05,,---,0.05,VWS V15.00,2014-11-27 20:04:00,
2014-11-27 15:09:00,31.1,15.1,29.44,North,0,0.0,0.0,51,0.05,,---,0.05,VWS V15.00,2014-11-27 20:09:00,
2014-11-27 15:14:00,30.9,14.9,29.44,North,0,0.0,0.0,51,0.05,,---,0.05,VWS V15.00,2014-11-27 20:14:00,
2014-11-27 15:19:00,30.9,14.9,29.44,North,0,0.0,0.0,51,0.05,,---,0.05,VWS V15.00,2014-11-27 20:19:00,
2014-11-27 15:24:00,30.7,14.8,29.44,North,0,0.0,0.0,51,0.05,,---,0.05,VWS V15.00,2014-11-27 20:24:00,
2014-11-27 15:29:00,30.6,14.6,29.44,North,0,0.0,0.0,51,0.00,,---,0.05,VWS V15.00,2014-11-27 20:29:00,
2014-11-27 15:34:00,30.4,14.4,29.44,North,0,0.0,0.0,51,0.00,,---,0.05,VWS V15.00,2014-11-27 20:34:00,
2014-11-27 15:39:00,30.2,14.7,29.44,North,0,0.0,0.0,52,0.00,,---,0.05,VWS V15.00,2014-11-27 20:39:00,
2014-11-27 15:45:00,30.0,14.5,29.44,North,0,0.0,0.0,52,0.00,,---,0.05,VWS V15.00,2014-11-27 20:45:00,
2014-11-27 15:50:00,29.8,14.4,29.44,North,0,0.0,0.0,52,0.00,,---,0.05,VWS V15.00,2014-11-27 20:50:00,
2014-11-27 15:55:00,29.7,14.2,29.44,North,0,0.0,0.0,52,0.00,,---,0.05,VWS V15.00,2014-11-27 20:55:00,
2014-11-27 16:00:00,29.5,14.0,29.47,North,0,0.0,0.0,52,0.00,,---,0.05,VWS V15.00,2014-11-27 21:00:00,
2014-11-27 16:05:00,29.3,13.9,29.47,North,0,0.0,0.0,52,0.00,,---,0.05,VWS V15.00,2014-11-27 21:05:00,
2014-11-27 16:10:00,29.1,13.7,29.47,North,0,0.0,0.0,52,0.00,,---,0.05,VWS V15.00,2014-11-27 21:10:00,
2014-11-27 16:15:00,28.9,13.5,29.47,North,0,0.0,0.0,52,0.00,,---,0.05,VWS V15.00,2014-11-27 21:15:00,
2014-11-27 16:20:00,28.6,13.2,29.47,North,0,0.0,0.0,52,0.00,,---,0.05,VWS V15.00,2014-11-27 21:20:00,
2014-11-27 16:26:00,28.6,13.2,29.47,North,0,0.0,0.0,52,0.00,,---,0.05,VWS V15.00,2014-11-27 21:26:00,
2014-11-27 16:31:00,28.2,13.3,29.47,North,0,0.0,0.0,53,0.00,,---,0.05,VWS V15.00,2014-11-27 21:31:00,
2014-11-27 16:36:00,28.2,13.3,29.47,North,0,0.0,0.0,53,0.00,,---,0.05,VWS V15.00,2014-11-27 21:36:00,
2014-11-27 16:41:00,28.0,13.1,29.47,North,0,0.0,0.0,53,0.00,,---,0.05,VWS V15.00,2014-11-27 21:41:00,
2014-11-27 16:46:00,28.0,13.1,29.47,North,0,0.0,0.0,53,0.00,,---,0.05,VWS V15.00,2014-11-27 21:46:00,
2014-11-27 16:51:00,27.9,13.0,29.47,North,0,0.0,0.0,53,0.00,,---,0.05,VWS V15.00,2014-11-27 21:51:00,
2014-11-27 16:56:00,27.9,13.4,29.47,North,0,0.0,0.0,54,0.00,,---,0.05,VWS V15.00,2014-11-27 21:56:00,
2014-11-27 17:01:00,27.9,13.4,29.47,North,0,0.0,0.0,54,0.00,,---,0.05,VWS V15.00,2014-11-27 22:01:00,
2014-11-27 17:06:00,27.9,13.0,29.47,North,0,0.0,0.0,53,0.00,,---,0.05,VWS V15.00,2014-11-27 22:06:00,
2014-11-27 17:11:00,27.9,13.4,29.47,North,0,0.0,0.0,54,0.00,,---,0.05,VWS V15.00,2014-11-27 22:11:00,
2014-11-27 17:16:00,27.9,13.4,29.47,North,0,0.0,0.0,54,0.00,,---,0.05,VWS V15.00,2014-11-27 22:16:00,
2014-11-27 17:21:00,27.7,13.2,29.47,North,0,0.0,0.0,54,0.00,,---,0.05,VWS V15.00,2014-11-27 22:21:00,
2014-11-27 17:26:00,27.7,12.8,29.47,North,0,0.0,0.0,53,0.00,,---,0.05,VWS V15.00,2014-11-27 22:26:00,
2014-11-27 17:31:00,27.7,12.8,29.47,North,0,0.0,0.0,53,0.00,,---,0.05,VWS V15.00,2014-11-27 22:31:00,
2014-11-27 17:36:00,27.7,12.8,29.47,North,0,0.0,0.0,53,0.00,,---,0.05,VWS V15.00,2014-11-27 22:36:00,
2014-11-27 17:41:00,27.5,13.1,29.47,North,0,0.0,0.0,54,0.00,,---,0.05,VWS V15.00,2014-11-27 22:41:00,
2014-11-27 17:46:00,27.3,12.9,29.47,North,0,0.0,0.0,54,0.00,,---,0.05,VWS V15.00,2014-11-27 22:46:00,
2014-11-27 17:51:00,27.1,12.7,29.47,North,0,0.0,0.0,54,0.00,,---,0.05,VWS V15.00,2014-11-27 22:51:00,
2014-11-27 17:56:00,27.0,12.6,29.47,North,0,0.0,0.0,54,0.00,,---,0.05,VWS V15.00,2014-11-27 22:56:00,
2014-11-27 18:01:00,27.0,12.6,29.50,North,0,0.0,0.0,54,0.00,,---,0.05,VWS V15.00,2014-11-27 23:01:00,
2014-11-27 18:06:00,26.8,12.4,29.50,North,0,0.0,0.0,54,0.00,,---,0.05,VWS V15.00,2014-11-27 23:06:00,
2014-11-27 18:12:00,26.8,12.4,29.50,North,0,0.0,0.0,54,0.00,,---,0.05,VWS V15.00,2014-11-27 23:12:00,
2014-11-27 18:17:00,26.8,12.4,29.50,North,0,0.0,0.0,54,0.00,,---,0.05,VWS V15.00,2014-11-27 23:17:00,
2014-11-27 18:22:00,26.8,12.4,29.50,North,0,0.0,0.0,54,0.00,,---,0.05,VWS V15.00,2014-11-27 23:22:00,
2014-11-27 18:27:00,26.8,12.4,29.50,North,0,0.0,0.0,54,0.00,,---,0.05,VWS V15.00,2014-11-27 23:27:00,
2014-11-27 18:32:00,26.8,12.4,29.50,North,0,0.0,0.0,54,0.00,,---,0.05,VWS V15.00,2014-11-27 23:32:00,
2014-11-27 18:37:00,26.8,12.4,29.50,North,0,0.0,0.0,54,0.00,,---,0.05,VWS V15.00,2014-11-27 23:37:00,
2014-11-27 18:42:00,26.8,12.4,29.50,North,0,0.0,0.0,54,0.00,,---,0.05,VWS V15.00,2014-11-27 23:42:00,
2014-11-27 18:47:00,25.3,12.2,29.50,North,0,0.0,0.0,57,0.00,,---,0.05,VWS V15.00,2014-11-27 23:47:00,
2014-11-27 18:52:00,25.2,12.5,29.50,North,0,0.0,0.0,58,0.00,,---,0.05,VWS V15.00,2014-11-27 23:52:00,
2014-11-27 18:57:00,25.0,12.3,29.50,North,0,0.0,0.0,58,0.00,,---,0.05,VWS V15.00,2014-11-27 23:57:00,
2014-11-27 19:02:00,24.8,12.5,29.50,North,0,0.0,0.0,59,0.00,,---,0.05,VWS V15.00,2014-11-28 00:02:00,
2014-11-27 19:07:00,24.8,12.5,29.50,North,0,0.0,0.0,59,0.00,,---,0.05,VWS V15.00,2014-11-28 00:07:00,
2014-11-27 19:12:00,24.6,12.4,29.50,North,0,0.0,0.0,59,0.00,,---,0.05,VWS V15.00,2014-11-28 00:12:00,
2014-11-27 19:17:00,25.0,12.7,29.50,North,0,0.0,0.0,59,0.00,,---,0.05,VWS V15.00,2014-11-28 00:17:00,
2014-11-27 19:22:00,25.2,12.5,29.50,North,0,0.0,0.0,58,0.00,,---,0.05,VWS V15.00,2014-11-28 00:22:00,
2014-11-27 19:27:00,25.0,12.3,29.50,North,0,0.0,0.0,58,0.00,,---,0.05,VWS V15.00,2014-11-28 00:27:00,
2014-11-27 19:32:00,24.8,12.1,29.50,North,0,0.0,0.0,58,0.00,,---,0.05,VWS V15.00,2014-11-28 00:32:00,
2014-11-27 19:37:00,24.6,12.4,29.50,North,0,0.0,0.0,59,0.00,,---,0.05,VWS V15.00,2014-11-28 00:37:00,
2014-11-27 19:42:00,24.3,12.0,29.50,North,0,0.0,0.0,59,0.00,,---,0.05,VWS V15.00,2014-11-28 00:42:00,
2014-11-27 19:47:00,24.3,12.4,29.50,North,0,0.0,0.0,60,0.00,,---,0.05,VWS V15.00,2014-11-28 00:47:00,
2014-11-27 19:52:00,23.9,12.1,29.50,North,0,0.0,0.0,60,0.00,,---,0.05,VWS V15.00,2014-11-28 00:52:00,
2014-11-27 19:58:00,23.7,12.2,29.50,North,0,0.0,0.0,61,0.00,,---,0.05,VWS V15.00,2014-11-28 00:58:00,
2014-11-27 20:04:00,23.5,12.1,29.50,North,0,0.0,0.0,61,0.00,,---,0.05,VWS V15.00,2014-11-28 01:04:00,
2014-11-27 20:09:00,23.4,12.3,29.50,North,0,0.0,0.0,62,0.00,,---,0.05,VWS V15.00,2014-11-28 01:09:00,
2014-11-27 20:14:00,23.2,12.1,29.50,North,0,0.0,0.0,62,0.00,,---,0.05,VWS V15.00,2014-11-28 01:14:00,
2014-11-27 20:19:00,23.0,12.3,29.53,North,0,0.0,0.0,63,0.00,,---,0.05,VWS V15.00,2014-11-28 01:19:00,
2014-11-27 20:24:00,23.0,12.6,29.53,North,0,0.0,0.0,64,0.00,,---,0.05,VWS V15.00,2014-11-28 01:24:00,
2014-11-27 20:29:00,23.0,12.6,29.53,North,0,0.0,0.0,64,0.00,,---,0.05,VWS V15.00,2014-11-28 01:29:00,
2014-11-27 20:34:00,23.0,13.0,29.53,North,0,0.0,0.0,65,0.00,,---,0.05,VWS V15.00,2014-11-28 01:34:00,
2014-11-27 20:40:00,23.2,13.2,29.53,North,0,0.0,0.0,65,0.00,,---,0.05,VWS V15.00,2014-11-28 01:40:00,
2014-11-27 20:45:00,23.2,13.2,29.53,North,0,0.0,0.0,65,0.00,,---,0.05,VWS V15.00,2014-11-28 01:45:00,
2014-11-27 20:50:00,23.0,13.4,29.53,North,0,0.0,0.0,66,0.00,,---,0.05,VWS V15.00,2014-11-28 01:50:00,
2014-11-27 20:55:00,23.0,13.4,29.53,North,0,0.0,0.0,66,0.00,,---,0.05,VWS V15.00,2014-11-28 01:55:00,
2014-11-27 21:00:00,23.0,13.4,29.53,North,0,0.0,0.0,66,0.00,,---,0.05,VWS V15.00,2014-11-28 02:00:00,
2014-11-27 21:05:00,23.0,13.4,29.53,North,0,0.0,0.0,66,0.00,,---,0.05,VWS V15.00,2014-11-28 02:05:00,
2014-11-27 21:10:00,22.8,13.2,29.53,North,0,0.0,0.0,66,0.00,,---,0.05,VWS V15.00,2014-11-28 02:10:00,
2014-11-27 21:15:00,22.8,13.5,29.53,North,0,0.0,0.0,67,0.00,,---,0.05,VWS V15.00,2014-11-28 02:15:00,
2014-11-27 21:20:00,22.8,13.5,29.53,North,0,0.0,0.0,67,0.00,,---,0.05,VWS V15.00,2014-11-28 02:20:00,
2014-11-27 21:25:00,22.8,13.5,29.53,North,0,0.0,0.0,67,0.00,,---,0.05,VWS V15.00,2014-11-28 02:25:00,
2014-11-27 21:30:00,23.0,14.0,29.53,North,0,0.0,0.0,68,0.00,,---,0.05,VWS V15.00,2014-11-28 02:30:00,
2014-11-27 21:35:00,23.0,14.0,29.53,North,0,0.0,0.0,68,0.00,,---,0.05,VWS V15.00,2014-11-28 02:35:00,
2014-11-27 21:40:00,23.2,14.2,29.53,North,0,0.0,0.0,68,0.00,,---,0.05,VWS V15.00,2014-11-28 02:40:00,
2014-11-27 21:45:00,23.2,14.5,29.53,North,0,0.0,0.0,69,0.00,,---,0.05,VWS V15.00,2014-11-28 02:45:00,
2014-11-27 21:50:00,23.4,14.7,29.53,North,0,0.0,0.0,69,0.00,,---,0.05,VWS V15.00,2014-11-28 02:50:00,
2014-11-27 21:56:00,23.5,14.9,29.53,North,0,0.0,0.0,69,0.00,,---,0.05,VWS V15.00,2014-11-28 02:56:00,
2014-11-27 22:01:00,23.5,14.9,29.53,North,0,0.0,0.0,69,0.00,,---,0.05,VWS V15.00,2014-11-28 03:01:00,
2014-11-27 22:06:00,23.5,14.9,29.53,North,0,0.0,0.0,69,0.00,,---,0.05,VWS V15.00,2014-11-28 03:06:00,
2014-11-27 22:11:00,23.7,15.1,29.53,North,0,0.0,0.0,69,0.00,,---,0.05,VWS V15.00,2014-11-28 03:11:00,
2014-11-27 22:16:00,23.7,15.1,29.53,North,0,0.0,0.0,69,0.00,,---,0.05,VWS V15.00,2014-11-28 03:16:00,